Lexington Weather

Lexington, Massachusetts, USA

41°F
4/22/2024 8:20am 
  • Lexington Conditions: Clear
  • Temperature: 41.4°F / 5.2°CWarmer 3.3°F than last hour.
  • Dew Point: 28.0°FDecreased 1.5°Fsince last hour.
  • Relative Humidity: 59%Decreased 12.0% since last hour.
  • Wind: Calm, 10-min avg: Calm, gust: None
  • Barometer: 29.95 in Steady
  • Visibility: 10 miles
  • Rain Today: 0.00 in
  •   

Regional Weather Roundup
for Boston, MA

        
000
ASUS41 KBOX 211210
RWRBOX

REGIONAL WEATHER ROUNDUP
NATIONAL WEATHER SERVICE BOSTON/NORTON MA
800 AM EDT SUN APR 21 2024

NOTE:  "FAIR" INDICATES FEW OR NO CLOUDS BELOW 12,000 FEET WITH NO 
SIGNIFICANT WEATHER AND/OR OBSTRUCTIONS TO VISIBILITY.

MAZALL-211300-
EASTERN MASSACHUSETTS
  
CITY           SKY/WX    TMP DP  RH WIND       PRES   REMARKS
BOSTON         PTSUNNY   44  28  53 W10       29.99R                  
6HR MIN TEMP:  41; 6HR MAX TEMP:  45;                                

BEVERLY        SUNNY     43  28  55 W9        29.97R                  
LAWRENCE       SUNNY     42  27  55 SW7       29.99R                  
BEDFORD        SUNNY     42  28  57 VRB6      29.98R                  
NORWOOD        SUNNY     45  29  53 W7        29.99S                  
MARSHFIELD     MOSUNNY   41  30  65 VRB6      29.98F                  
PLYMOUTH       MOSUNNY   43  31  62 W6        29.99R                  
TAUNTON        MOSUNNY   44  29  55 W5        30.00R                  
NEW BEDFORD    MOSUNNY   44  31  60 NW9       29.99S                  
$$

MAZALL-211300-
CAPE COD AND THE ISLANDS
  
CITY           SKY/WX    TMP DP  RH WIND       PRES   REMARKS
FALMOUTH       SUNNY     43  28  56 NW7       29.99                   
HYANNIS        MOSUNNY   43  28  55 NW7       29.97S                  
CHATHAM        MOSUNNY   45  32  60 VRB6      29.98S                  
PROVINCETOWN   MOSUNNY   44  36  73 W10       29.99S                  
NANTUCKET      MOSUNNY   46  32  58 NW13      29.99R                  
MARTHAS VNYRD  MOSUNNY   45  32  60 NW12      29.99S                  
$$
 
MAZALL-211300-
CENTRAL AND WESTERN MASSACHUSETTS
  
CITY           SKY/WX    TMP DP  RH WIND       PRES   REMARKS
WORCESTER      SUNNY     39  25  57 W13       29.96S WCI  31          
6HR MIN TEMP:  36; 6HR MAX TEMP:  39;                                

FITCHBURG      SUNNY     44  26  49 NW7       29.98R                  
ORANGE         SUNNY     39  28  64 CALM      30.00R                  
SPRINGFIELD    MOSUNNY   43  30  59 CALM      29.99R                  
WESTFIELD      MOSUNNY   42  27  55 NW6       30.00S                  
NORTH ADAMS    SUNNY     40  29  64 NW3       30.00S                  
PITTSFIELD     SUNNY     38  27  64 SW5       29.97S                  
$$
 
RIZALL-211300-
RHODE ISLAND
  
CITY           SKY/WX    TMP DP  RH WIND       PRES   REMARKS
PROVIDENCE     PTSUNNY   43  29  57 W8        30.01R                  
6HR MIN TEMP:  35; 6HR MAX TEMP:  43;                                

NEWPORT        MOSUNNY   42  30  62 NW8       30.00S                  
BLOCK ISLAND   PTSUNNY   42  30  62 W10       30.02F                  
SMITHFIELD     MOSUNNY   41  28  60 W8        30.00R                  
WESTERLY       PTSUNNY   42  31  64 VRB6      30.02R                  
$$
 
CTZALL-211300-
CONNECTICUT
  
CITY           SKY/WX    TMP DP  RH WIND       PRES   REMARKS
BRADLEY INTL   PTSUNNY   45  28  51 CALM      30.02R                  
6HR MIN TEMP:  36; 6HR MAX TEMP:  45;                                

HARTFORD       MOSUNNY   43  27  53 CALM      30.03S                  
PLAINVILLE     FAIR      42  28  58 CALM      30.02S                  
BRIDGEPORT     PTSUNNY   44  28  53 NW6       30.05S                  
DANBURY        PTSUNNY   40  31  70 CALM      30.05S                  
GROTON         PTSUNNY   43  30  60 NW10      30.02S                  
NEW HAVEN      PTSUNNY   45  30  55 VRB5      30.04S                  
CHESTER        PTSUNNY   43  27  52 W9        30.03R                  
MERIDEN        PTSUNNY   41  27  57 S3        30.04R                  
WILLIMANTIC    MOSUNNY   40  28  62 CALM      30.02R                  
OXFORD         PTSUNNY   38  26  62 W5        30.03R                  
$$

MEZ002-015-021-024-NHZ003-005-008-011-012-014-VTZ005-008-211300-
NORTHERN NEW ENGLAND
  
CITY           SKY/WX    TMP DP  RH WIND       PRES   REMARKS
PORTLAND ME    SUNNY     43  32  65 W6        29.93R                  
6HR MIN TEMP:  33; 6HR MAX TEMP:  43;                                

BANGOR ME      SUNNY     43  33  68 W10       29.89R                  
CONCORD NH     SUNNY     40  29  64 CALM      29.97R                  
MANCHESTER NH  MOSUNNY   43  27  53 CALM      29.96R                  
NASHUA NH      SUNNY     43  27  53 W7        29.98R                  
PORTSMOUTH NH  MOSUNNY   44  28  53 W8        29.95R                  
JAFFREY NH     SUNNY     40  25  55 SW6       29.96R                  
KEENE NH       SUNNY     36  28  73 CALM      29.99R                  
BURLINGTON VT  MOSUNNY   39  29  67 S8        29.96R                  
MT. WASHINGTON FOG       18  18 100 W23         N/A  VSB 1/16WCI   0  
$$

NYZ052-076-211300-
EASTERN NEW YORK
  
CITY           SKY/WX    TMP DP  RH WIND       PRES   REMARKS
ALBANY         PTSUNNY   39  29  67 S3        30.03S                  
6HR MIN TEMP:  31; 6HR MAX TEMP:  39;                                

NEW YORK CITY  PTSUNNY   45  25  45 NW9       30.06S                  
6HR MIN TEMP:  44; 6HR MAX TEMP:  46;                                

$$
 
ANZALL-211300-
MARINE OBSERVATIONS
  
STATION/POSITION TIME  TEMP    WIND        PRES    VSBY  WAVE
                       AIR SEA DIR/SP/G                  HT/PER
                 (UTC) (F)     (DEG/KT/KT) (MB)    (MI)  (FT/S)
BOSTON BUOY      1150   43     280/ 12/ 14 1014.8S         2/ 8
BUZZARDS BAY     1100   43     310/ 13/ 14 1016.3R
NANTUCKET SOUND  1150   44 47  310/ 14/ 16 1015.0R         1/ 2
MASS BAY-STELLWA 1004   43 46  300/ 12/ 14 1013.7R  1 7/8  2/ 8
ISLE OF SHOALS   1100   41     290/ 11/ 12 1013.4R
S OF BLOCK IS    1156      45                N/A           3/ 8
$$

......................KEY.........................
  SKY/WX - SKY CONDITION/PRESENT WEATHER
  TMP    - TEMPERATURE IN FAHRENHEIT
  DWPT   - DEWPOINT IN FAHRENHEIT
  RH     - RELATIVE HUMIDITY IN PERCENT
  WIND   - DIRECTION AND SPEED IN MPH
  PRES   - MEAN SEA LEVEL PRESSURE IN INCHES OF HG
  WCI    - WIND CHILL INDEX
  VSB    - VISIBILITY IN MILES
  HX     - HEAT INDEX
  TC     - TEMPERATURE IN CELSIUS
  VRB    - VARIABLE WIND DIRECTION
  N/A    - NOT AVAILABLE
  
      

Other recent Regional Weather Roundups

Mon Apr 22, 8:10am EDT

Mon Apr 22, 7:10am EDT

Mon Apr 22, 6:10am EDT

Mon Apr 22, 5:10am EDT

Mon Apr 22, 4:10am EDT

Mon Apr 22, 3:10am EDT

Mon Apr 22, 2:10am EDT

Mon Apr 22, 1:10am EDT

Mon Apr 22, 12:10am EDT

Sun Apr 21, 11:10pm EDT

Sun Apr 21, 10:10pm EDT

Sun Apr 21, 9:10pm EDT

Sun Apr 21, 8:10pm EDT

Sun Apr 21, 7:10pm EDT

Sun Apr 21, 6:10pm EDT

Sun Apr 21, 5:10pm EDT

Sun Apr 21, 4:10pm EDT

Sun Apr 21, 3:10pm EDT

Sun Apr 21, 2:10pm EDT

Sun Apr 21, 1:10pm EDT

Sun Apr 21, 12:10pm EDT

Sun Apr 21, 11:10am EDT

Sun Apr 21, 10:10am EDT

Sun Apr 21, 9:10am EDT

Sun Apr 21, 7:10am EDT

Sun Apr 21, 6:10am EDT

Sun Apr 21, 5:10am EDT

Sun Apr 21, 4:10am EDT

Sun Apr 21, 3:10am EDT

Sun Apr 21, 2:10am EDT

Sun Apr 21, 1:10am EDT

Sun Apr 21, 12:10am EDT

Sat Apr 20, 11:10pm EDT

Sat Apr 20, 10:10pm EDT

Sat Apr 20, 9:10pm EDT

Sat Apr 20, 8:10pm EDT

Sat Apr 20, 7:10pm EDT

Sat Apr 20, 6:10pm EDT

Sat Apr 20, 5:10pm EDT

Sat Apr 20, 4:10pm EDT

Sat Apr 20, 3:10pm EDT

Sat Apr 20, 2:10pm EDT

Sat Apr 20, 1:10pm EDT

Sat Apr 20, 12:10pm EDT

Sat Apr 20, 11:10am EDT

Sat Apr 20, 10:10am EDT

Sat Apr 20, 9:10am EDT

Sat Apr 20, 8:10am EDT

Sat Apr 20, 7:10am EDT

Sat Apr 20, 6:10am EDT

Sat Apr 20, 5:10am EDT

Sat Apr 20, 4:10am EDT

Sat Apr 20, 3:10am EDT

Sat Apr 20, 2:10am EDT

Sat Apr 20, 1:10am EDT

Sat Apr 20, 12:10am EDT

Fri Apr 19, 11:10pm EDT

Fri Apr 19, 10:10pm EDT

Fri Apr 19, 9:10pm EDT

Fri Apr 19, 8:10pm EDT

Fri Apr 19, 7:10pm EDT

Fri Apr 19, 6:10pm EDT

Fri Apr 19, 5:10pm EDT

Fri Apr 19, 4:10pm EDT

Fri Apr 19, 3:10pm EDT

Fri Apr 19, 2:10pm EDT

Fri Apr 19, 1:10pm EDT

Fri Apr 19, 12:10pm EDT

Fri Apr 19, 11:10am EDT

Fri Apr 19, 10:10am EDT

Fri Apr 19, 9:10am EDT

Fri Apr 19, 8:10am EDT

Fri Apr 19, 7:10am EDT

Fri Apr 19, 6:10am EDT

Fri Apr 19, 5:10am EDT

Fri Apr 19, 4:10am EDT

Fri Apr 19, 3:10am EDT

Fri Apr 19, 2:10am EDT

Fri Apr 19, 1:10am EDT

Fri Apr 19, 12:10am EDT

Thu Apr 18, 11:10pm EDT

Thu Apr 18, 10:10pm EDT

Thu Apr 18, 9:10pm EDT

Thu Apr 18, 8:10pm EDT

Thu Apr 18, 7:10pm EDT

Thu Apr 18, 6:10pm EDT

Thu Apr 18, 5:10pm EDT

Thu Apr 18, 4:10pm EDT

Thu Apr 18, 3:10pm EDT

Thu Apr 18, 2:10pm EDT

Thu Apr 18, 1:10pm EDT

Thu Apr 18, 12:10pm EDT

Thu Apr 18, 11:10am EDT

Thu Apr 18, 10:10am EDT

Thu Apr 18, 9:10am EDT

Thu Apr 18, 8:10am EDT

Thu Apr 18, 7:10am EDT

Thu Apr 18, 6:10am EDT

Thu Apr 18, 5:10am EDT

Thu Apr 18, 4:10am EDT

Thu Apr 18, 3:10am EDT

Thu Apr 18, 2:10am EDT

Thu Apr 18, 1:10am EDT

Thu Apr 18, 12:10am EDT

Wed Apr 17, 11:10pm EDT

Wed Apr 17, 10:10pm EDT

Wed Apr 17, 9:10pm EDT

Wed Apr 17, 8:10pm EDT

Wed Apr 17, 7:10pm EDT

Wed Apr 17, 6:10pm EDT

Wed Apr 17, 5:10pm EDT

Wed Apr 17, 4:10pm EDT

Wed Apr 17, 3:10pm EDT

Wed Apr 17, 2:10pm EDT

Wed Apr 17, 1:10pm EDT

Wed Apr 17, 12:10pm EDT

Wed Apr 17, 11:10am EDT

Wed Apr 17, 10:10am EDT

Wed Apr 17, 9:10am EDT

Wed Apr 17, 8:10am EDT

Wed Apr 17, 7:10am EDT

Wed Apr 17, 6:10am EDT

Wed Apr 17, 5:10am EDT

Wed Apr 17, 4:10am EDT

Wed Apr 17, 3:10am EDT

Wed Apr 17, 2:10am EDT

Wed Apr 17, 1:10am EDT

Wed Apr 17, 12:10am EDT

Tue Apr 16, 11:10pm EDT

Tue Apr 16, 10:10pm EDT

Tue Apr 16, 9:10pm EDT

Tue Apr 16, 8:10pm EDT

Tue Apr 16, 7:10pm EDT

Tue Apr 16, 6:10pm EDT

Tue Apr 16, 5:10pm EDT

Tue Apr 16, 4:10pm EDT

Tue Apr 16, 3:10pm EDT

Tue Apr 16, 2:10pm EDT

Tue Apr 16, 1:10pm EDT

Tue Apr 16, 12:10pm EDT

Tue Apr 16, 11:10am EDT

Tue Apr 16, 10:10am EDT

Tue Apr 16, 9:10am EDT

Tue Apr 16, 8:10am EDT

Tue Apr 16, 7:10am EDT

Tue Apr 16, 6:10am EDT

Tue Apr 16, 5:10am EDT

Tue Apr 16, 4:10am EDT

Tue Apr 16, 3:10am EDT

Tue Apr 16, 2:10am EDT

Tue Apr 16, 1:10am EDT

Tue Apr 16, 12:10am EDT

Mon Apr 15, 11:10pm EDT

Mon Apr 15, 10:10pm EDT

Mon Apr 15, 9:10pm EDT

Mon Apr 15, 8:10pm EDT

Mon Apr 15, 7:10pm EDT

Mon Apr 15, 6:10pm EDT

Mon Apr 15, 5:10pm EDT

Mon Apr 15, 4:10pm EDT

Mon Apr 15, 3:10pm EDT

Mon Apr 15, 2:10pm EDT

Mon Apr 15, 1:10pm EDT

Mon Apr 15, 12:10pm EDT

Mon Apr 15, 11:10am EDT

Mon Apr 15, 10:10am EDT

Mon Apr 15, 9:10am EDT